Location: Plum
(40.5000°N, 79.7500°W)
Time: 15:48:54
(UTC-04:00)

Daily predictions for brighter satellites

Satellite Brightness Start Highest point End
(mag) Time Altitude Azimuth Time Altitude Azimuth Time Altitude Azimuth
Cosmos 1939 Rocket 3.7 21:20:10 10° S 21:24:09 52° W 21:28:05 10° NNW
Resurs 01 Rocket 1.8 21:24:01 10° S 21:28:25 76° WSW 21:32:52 10° NNW
Cosmos 1048 Rocket 4.0 21:23:16 10° SSW 21:28:33 80° ESE 21:33:57 10° NNE
Cosmos 1726 4.2 21:28:00 10° NE 21:29:58 14° ENE 21:31:56 10° ESE
ERS-2 2.1 21:27:35 10° SSE 21:31:15 90° E 21:34:57 10° NNW
USA 186 3.7 21:28:44 10° SSW 21:31:33 28° W 21:34:14 10° NW
OAO 3 Rocket 3.7 21:27:42 10° WSW 21:32:25 45° S 21:37:07 10° ESE
Cosmos 921 Rocket 4.1 21:28:36 10° N 21:32:36 31° ENE 21:36:37 10° SE
Cosmos 1825 Rocket 3.6 21:34:19 10° S 21:38:46 88° E 21:43:15 10° N
SL-8 R/B 3.7 21:35:04 10° SW 21:39:54 81° SSE 21:44:45 10° ENE
Cosmos 2278 Rocket 3.6 21:37:48 10° SE 21:41:29 18° E 21:45:12 10° ENE
ARGOS 3.5 21:36:52 10° SSE 21:42:08 53° ENE 21:47:24 10° N
Cosmos 1315 Rocket 2.9 21:39:36 10° S 21:43:40 90° ENE 21:47:47 10° N
MetOp-A 4.3 21:43:05 10° SSE 21:48:19 58° ENE 21:53:34 10° N
Spot 2 Rocket 3.8 21:44:14 10° S 21:49:15 68° WSW 21:54:19 10° NNW
Cosmos 1844 Rocket 2.7 21:52:10 10° SSW 21:57:50 82° ESE 22:03:30 10° NNE
COSMOS 2406 3.7 21:54:14 10° NNW 21:59:48 48° ENE 22:04:22 15° SE
Cosmos 1844 3.7 21:58:32 10° SSW 22:04:10 71° ESE 22:09:55 10° NNE
SL-08 RB Rocket 3.8 22:01:15 13° SSE 22:05:22 67° ENE 22:10:02 10° N
ATLAS 3B R/B 3.0 22:01:10 10° NNW 22:07:38 52° NE 22:12:52 16° ESE
Cosmos 1238 Rocket 2.8 22:05:06 10° SSW 22:07:59 54° W 22:11:00 10° N
KORONAS-FOTON 4.1 22:05:22 13° SSE 22:08:37 48° E 22:12:24 10° NNE
Cosmos 2285 Rocket 4.4 22:02:59 10° SSW 22:09:16 68° WNW 22:15:34 10° NNE
Cosmos 1110 Rocket 4.0 22:04:20 10° NNW 22:09:30 70° ENE 22:13:32 17° SSE
SPOT 5 3.9 22:06:25 16° SE 22:10:01 36° ENE 22:14:50 10° N
USA 238 DEB 3.9 22:04:43 10° NNW 22:11:53 73° NE 22:17:40 17° SE
USA 238 3.9 22:04:50 10° NNW 22:11:59 73° NE 22:17:45 17° SE
Cosmos 2084 3.7 22:09:39 10° NW 22:13:25 53° WSW 22:16:07 18° SSE
ATLAS 5 CENTAUR R/B 2.9 22:14:23 18° ESE 22:15:07 19° ESE 22:18:25 10° ENE
Cosmos 1346 Rocket 3.0 22:11:31 10° NNW 22:15:32 71° W 22:19:03 13° S
Lacrosse 5 3.5 22:10:53 10° WSW 22:15:36 38° NW 22:20:20 10° NNE
Cosmos-2242 3.2 22:12:58 10° NNW 22:17:22 73° W 22:21:20 12° S
Iridium 18 4.4 22:18:11 16° S 22:20:45 85° E 22:24:37 10° N
S3M 4.1 22:15:36 11° S 22:21:35 60° E 22:27:52 10° NNE
Meteor 1-24 Rocket 4.4 22:15:56 10° SSW 22:21:55 63° WNW 22:27:53 10° N
Cosmos 1331 Rocket 4.0 22:16:42 10° NNW 22:21:56 80° ENE 22:25:39 20° SSE
Cosmos 494 Rocket 4.1 22:17:59 10° SSW 22:23:13 84° WNW 22:28:32 10° NNE
H-2A R/B 2.2 22:18:45 14° S 22:23:25 81° WSW 22:28:52 10° NNW
SPOT 1/Viking Rocket 4.0 22:20:08 20° SE 22:23:27 46° ENE 22:28:21 10° N
NOSS 3-2 (A) 4.3 22:16:00 10° NNW 22:23:28 60° NE 22:29:42 18° SE
Cosmos 2082 Rocket 4.0 22:25:03 10° N 22:29:14 20° NE 22:33:00 11° E
Cosmos 1833 Rocket 4.3 22:25:43 10° N 22:30:05 23° NE 22:33:38 13° E
Helios 1A 3.4 22:28:25 25° SE 22:30:34 48° ENE 22:34:38 10° N
Cosmos 1626 3.8 22:31:41 18° E 22:31:55 18° E 22:34:31 10° NE
Helios 1B rocket 3.2 22:28:47 10° NNE 22:32:30 32° E 22:33:41 27° SE
Cosmos 1908 3.6 22:31:42 10° NNW 22:35:31 62° W 22:38:06 20° S
Centaur D-1AR AC-36 4.4 22:31:13 10° WSW 22:35:50 13° SW 22:38:38 10° SSW
Cosmos 1842 Rocket 3.6 22:32:40 10° N 22:37:00 64° E 22:39:11 28° SSE
ATLAS 2AS CENTAUR R/B 3.7 22:30:36 10° SW 22:38:19 59° NW 22:46:21 10° NNE
CZ-2C R/B 4.0 22:34:31 10° NE 22:38:29 21° E 22:39:34 19° ESE
Cosmos 1340 2.6 22:37:02 10° N 22:40:50 87° ENE 22:42:34 31° S
CSL-04 DEB 4.4 22:40:29 26° S 22:42:36 75° WSW 22:46:33 10° NNW
SEDSat Delta rocket 4.5 22:40:02 10° SW 22:43:33 22° S 22:43:33 22° S
Cosmos 1553 Rocket 4.0 22:38:09 10° S 22:44:13 79° W 22:50:19 10° N
Landsat 7 4.0 22:42:27 28° SE 22:44:50 59° ENE 22:49:31 10° N
NOSS 3-2 (C) 4.3 22:41:51 10° NNW 22:49:22 64° NE 22:54:47 23° SE
ERS-1 Rocket 3.3 22:46:45 20° S 22:50:13 61° W 22:55:13 10° NNW
Cosmos 1302 Rocket 4.0 22:45:37 10° NNW 22:50:56 81° ENE 22:53:36 30° SSE
DMSP B5D2-2 4.1 22:46:36 10° N 22:51:51 79° WNW 22:56:34 13° SSW
Cosmos 1674 4.4 22:51:14 10° SW 22:54:38 30° WNW 22:58:04 10° NNW
Cosmos 1455 4.3 22:56:42 10° NE 22:58:49 14° ENE 22:59:05 14° ENE
Cosmos 1300 2.6 22:56:40 10° N 23:00:30 76° E 23:01:28 47° SSE
Meteor 2-10 4.5 22:55:57 10° NNW 23:01:20 63° W 23:04:53 22° S
Cosmos 2251 Rocket 3.7 22:57:03 10° SSW 23:02:23 75° WNW 23:07:43 10° NNE
USA 215 4.5 22:58:50 17° S 23:02:45 29° SW 23:08:18 10° WNW
Cosmos 1386 Rocket 4.4 22:57:56 10° N 23:04:02 90° NNE 23:07:22 28° S
Terra 2.0 23:02:30 36° SE 23:04:16 60° ENE 23:08:58 10° N
Cosmos 2315 Rocket 4.2 23:02:11 30° SSE 23:05:11 54° E 23:11:22 10° NNE
Cosmos 1726 3.4 23:01:55 10° NNW 23:05:22 35° W 23:07:13 22° SW
RESURS DK-1 3.5 23:06:04 28° E 23:06:04 28° E 23:09:03 10° NE
Cosmos 2221 2.5 23:02:39 10° N 23:06:58 71° E 23:08:10 45° SSE
Okean 3 Rocket 4.0 23:06:52 39° ESE 23:07:36 43° E 23:11:45 10° NNE
H-2A R/B 4.0 23:09:34 27° SSE 23:11:31 29° SE 23:34:24 10° E
NOSS 2-2 (E) 3.2 23:11:46 37° SSW 23:13:12 79° ESE 23:17:32 10° NE
CENTAUR R/B 3.7 23:07:01 10° NNW 23:14:42 51° NE 23:20:13 22° ESE
OAO 3 Rocket 4.1 23:11:09 10° WSW 23:15:30 32° SSW 23:15:30 32° SSW
Meteor 1-29 2.7 23:12:08 10° NNE 23:15:32 81° E 23:15:42 77° SSE
NOSS 3-4 (A) 3.5 23:09:23 10° SW 23:15:33 85° NW 23:21:59 10° NNE
NOSS 3-4 (C) 3.4 23:09:28 10° SW 23:15:37 85° NW 23:22:04 10° NNE
Cosmos 1328 3.6 23:21:27 63° SE 23:21:54 71° E 23:25:50 10° NNE
CZ-2C R/B 3.3 23:19:33 37° SSE 23:21:58 78° ENE 23:27:44 10° N
Cosmos 1461 3.9 23:17:51 10° SW 23:22:23 54° NW 23:27:05 10° NNE
Cosmos 2278 Rocket 2.6 23:19:23 10° SW 23:25:00 61° WNW 23:30:38 10° NNE
ATLAS 3B CENTAUR R/B 3.8 23:19:38 10° WSW 23:33:28 34° S 23:35:02 33° SSE
Spot 4 4.4 23:33:05 39° ESE 23:34:10 45° ENE 23:38:48 10° N
IGS 5A 4.0 23:33:19 41° SW 23:34:15 50° W 23:38:18 10° NNW
APEX 4.5 23:31:59 10° NW 23:34:53 28° WSW 23:35:06 27° WSW
Cosmos 407 Rocket 4.4 23:35:41 31° E 23:35:41 31° E 23:40:04 10° NE
Nimbus 7 Rocket 4.4 23:32:11 10° NNE 23:38:14 88° WNW 23:41:14 32° SSW
NOSS 2-2 (D) 3.8 23:42:34 33° WSW 23:44:08 60° NW 23:48:25 10° NNE
CARTOSAT-1 4.4 23:43:53 35° SW 23:44:54 40° W 23:48:59 10° NNW
Cosmos 1190 Rocket 4.4 23:49:20 43° ESE 23:49:29 43° ESE 23:54:23 10° NNE
Cosmos 405 Rocket 4.1 23:48:58 10° NNE 23:51:43 27° ENE 23:51:43 27° ENE
Cosmos 2369 Rocket 3.9 23:54:56 17° E 23:54:56 17° E 23:57:49 10° ENE
